N1QWW Weather Reports


time (UTC)temp
C
wind
direction
speed
KPH
gust
KPH
rain 1hr
cm
rain 24hr
cm
rain mn
cm
humidity
%
barometer
mb
20260507161515 16 76 0.0 8.0 0.00 0.28 0.10 64 1006.7
20260507160025 15 283 0.0 8.0 0.00 0.28 0.10 67 1006.9
20260507154511 15 280 0.0 9.7 0.00 0.28 0.10 68 1007.1
20260507153006 15 309 0.0 9.7 0.00 0.28 0.10 71 1007.2
20260507151504 15 274 0.0 6.4 0.00 0.28 0.10 72 1007.3
20260507150101 13 264 1.6 16.1 0.00 0.28 0.10 73 1007.5
20260507144603 13 281 0.0 8.0 0.00 0.28 0.10 79 1007.3
20260507143107 12 278 3.2 9.7 0.00 0.28 0.10 82 1007.5
20260507141607 12 290 0.0 8.0 0.00 0.28 0.10 87 1007.4
20260507140048 12 263 1.6 6.4 0.00 0.28 0.10 90 1007.7
20260507134548 11 291 1.6 8.0 0.00 0.28 0.10 91 1007.7
20260507133047 10 284 0.0 4.8 0.00 0.28 0.10 92 1007.6
20260507131559 10 270 0.0 4.8 0.00 0.28 0.10 91 1007.9
20260507130047 10 285 0.0 3.2 0.05 0.28 0.10 91 1007.7
20260507124545 9 281 0.0 3.2 0.10 0.28 0.10 91 1007.6
20260507123102 9 300 0.0 1.6 0.10 0.28 0.10 92 1007.7
20260507121546 8 354 0.0 3.2 0.08 0.25 0.08 92 1008.1
20260507120043 8 290 0.0 6.4 0.05 0.23 0.05 92 1007.7
20260507114542 9 285 0.0 0.0 0.00 0.18 0.00 93 1007.8
20260507113041 8 245 0.0 3.2 0.00 0.18 0.00 92 1007.6
20260507111539 -17 0.0 0.0 0.00 0.18 0.00 1008.2
20260507110035 -17 0.0 0.0 0.00 0.18 0.00 1007.7
20260507104531 -17 0.0 0.0 0.00 0.18 0.00 1006.8
20260507103027 -17 0.0 0.0 0.00 0.18 0.00 1006.9
20260507101522 -17 0.0 0.0 0.00 0.18 0.00 1006.8
20260507100017 -17 0.0 0.0 0.00 0.18 0.00 1006.8
20260507094513 -17 0.0 0.0 0.00 0.18 0.00 1006.5
20260507093009 -17 0.0 0.0 0.00 0.18 0.00 1006.4
20260507091508 -17 0.0 0.0 0.00 0.18 0.00 1006.4
20260507090105 -17 0.0 0.0 0.00 0.18 0.00 1006.2
20260507084558 -17 0.0 0.0 0.00 0.18 0.00 1006.7
20260507083052 -17 0.0 0.0 0.00 0.18 0.00 1005.9
20260507081554 -17 0.0 0.0 0.00 0.18 0.00 1006.1
20260507080045 -17 0.0 0.0 0.00 0.18 0.00 1006.4
20260507074539 -17 0.0 0.0 0.00 0.18 0.00 1005.3
20260507073034 11 271 0.0 0.0 0.00 0.18 0.00 94 1005.2
20260507071537 12 271 0.0 0.0 0.00 0.18 0.00 95 1005.3
20260507070039 11 271 0.0 0.0 0.00 0.18 0.00 94 1005.3
20260507064555 11 274 0.0 0.0 0.00 0.18 0.00 94 1005.5
20260507063034 11 271 0.0 0.0 0.00 0.18 0.00 94 1005.4
20260507061531 11 274 0.0 0.0 0.00 0.18 0.00 94 1005.6
20260507060034 11 255 0.0 1.6 0.00 0.18 0.00 94 1006.0
20260507054526 11 263 0.0 1.6 0.00 0.18 0.00 94 1006.0
20260507053024 12 236 1.6 4.8 0.00 0.18 0.00 94 1006.3
20260507051522 12 248 0.0 4.8 0.00 0.18 0.00 94 1006.5
20260507050035 12 260 0.0 4.8 0.00 0.18 0.00 94 1006.4
20260507044519 12 262 0.0 6.4 0.00 0.18 0.00 94 1006.6
20260507043019 12 296 0.0 8.0 0.00 0.18 0.00 94 1006.5
20260507041525 12 229 1.6 9.7 0.00 0.18 0.00 94 1006.6
20260507040016 12 255 0.0 11.3 0.00 0.18 0.00 94 1006.6
20260507034514 12 203 1.6 14.5 0.00 0.18 0.18 94 1006.7
20260507033013 12 260 0.0 11.3 0.00 0.18 0.18 94 1006.7
20260507031511 12 309 0.0 9.7 0.00 0.18 0.18 94 1006.9
20260507030021 12 266 0.0 6.4 0.00 0.18 0.18 94 1006.8
20260507024514 12 222 0.0 14.5 0.00 0.18 0.18 94 1006.6
20260507023009 12 128 1.6 6.4 0.00 0.18 0.18 94 1006.8
20260507021507 12 9 0.0 9.7 0.00 0.18 0.18 94 1007.0
20260507020004 12 240 4.8 19.3 0.00 0.18 0.18 94 1007.2
20260507014506 12 249 0.0 14.5 0.00 0.18 0.18 94 1007.5
20260507013010 12 249 1.6 19.3 0.00 0.18 0.18 94 1007.6
20260507011504 12 224 4.8 16.1 0.00 0.18 0.18 94 1007.7
20260507010002 12 19 4.8 16.1 0.00 0.18 0.18 94 1007.7
20260507004600 12 229 3.2 12.9 0.00 0.18 0.18 94 1007.6
20260507003100 12 260 4.8 16.1 0.00 0.18 0.18 93 1007.6
20260507001608 13 82 1.6 16.1 0.03 0.18 0.18 93 1007.6
20260507000059 13 267 4.8 19.3 0.03 0.18 0.18 93 1007.6
20260506234559 13 246 1.6 16.1 0.10 0.18 0.18 94 1007.6
20260506233058 13 283 1.6 19.3 0.10 0.18 0.18 93 1007.6
20260506231609 13 138 1.6 11.3 0.10 0.15 0.15 93 1007.3
20260506230110 13 63 1.6 12.9 0.13 0.15 0.15 93 1007.4
20260506224553 13 281 3.2 12.9 0.05 0.08 0.08 93 1007.4
20260506223051 13 37 0.0 8.0 0.03 0.05 0.05 92 1007.7
20260506221608 13 269 1.6 12.9 0.03 0.05 0.05 91 1007.9
20260506220105 13 110 3.2 22.5 0.03 0.03 0.03 90 1008.2
20260506214550 14 270 3.2 22.5 0.03 0.03 0.03 90 1008.1
20260506213103 14 258 3.2 12.9 0.03 0.03 0.03 89 1008.1
20260506211545 14 96 1.6 16.1 0.03 0.03 0.03 88 1008.3
20260506210053 15 221 1.6 11.3 0.00 0.00 0.00 88 1008.3
20260506204543 15 299 3.2 14.5 0.00 0.00 0.00 87 1008.5
20260506203042 15 56 1.6 11.3 0.00 0.00 0.00 87 1008.5
20260506201546 15 298 3.2 11.3 0.00 0.00 0.00 86 1008.7
20260506200040 15 201 3.2 16.1 0.00 0.00 0.00 84 1008.9
20260506194540 15 325 4.8 17.7 0.00 0.00 0.00 81 1009.0
20260506193038 16 245 4.8 20.9 0.00 0.00 0.00 80 1009.2
20260506191537 16 52 4.8 19.3 0.00 0.00 0.00 80 1009.2
20260506190038 16 253 0.0 11.3 0.00 0.00 0.00 79 1009.3
20260506184540 17 260 1.6 17.7 0.00 0.00 0.00 78 1009.2
20260506183035 17 297 4.8 22.5 0.00 0.00 0.00 78 1009.5
20260506181532 16 316 3.2 19.3 0.00 0.00 0.00 78 1009.8
20260506180033 17 255 8.0 25.7 0.00 0.00 0.00 78 1010.2
20260506174533 17 238 4.8 33.8 0.00 0.00 0.00 77 1010.4
20260506173028 18 168 3.2 16.1 0.00 0.00 0.00 75 1010.5
20260506171538 18 105 3.2 20.9 0.00 0.00 0.00 76 1010.4
20260506170025 17 332 3.2 14.5 0.00 0.00 0.00 78 1010.6
20260506164523 16 177 4.8 17.7 0.00 0.00 0.00 80 1011.0
20260506163023 16 248 3.2 29.0 0.00 0.00 0.00 80 1011.3